User: anonymous   Login
Location: Vallejo Observatory
(38.1221°N, 122.2109°W)
Time: 10:22:53
(UTC-07:00)
Language:

MOS 1 Rocket - Orbit

View from above orbital plane
View from above orbital plane
View from above satellite
View from above satellite

Ground track
Ground track

The orbit data is extracted from the following two-line orbital elements,

1 17528U 87018B   16125.49262550  .00000193  00000-0  51325-4 0  9998
2 17528  97.4051 124.2674 0153574 138.3738 335.3518 14.50642584540629
Epoch (UTC): 04 May 2016 11:49:22
Eccentricity: 0.0153574
inclination: 97.4051°
perigee height: 614 km
apogee height: 832 km
right ascension of ascending node: 124.2674°
argument of perigee: 138.3738°
revolutions per day: 14.50642584
mean anomaly at epoch: 335.3518°
orbit number at epoch: 54062

The dashed part of the orbit path shows where the satellite is in the earth's shadow,  

DLR